Powrót do katalogu

KINEIS-5B

AktywnyŁącznośćSSO
NORAD 62085·PAYLOAD·🇫🇷 France

Wystrzelony Nov 25, 2024 z Rocket Lab Launch Complex 1

Loading…

Następne Przeloty (najbliższe 24 godziny)

TLE

ŚwieżeSource: Space-Track

Epoka: Sep 14, 2026, 14:09 UTC

1 62085U 24219E   26257.58973344  .00000787  00000-0  11499-3 0  9993
2 62085  98.0165  60.9677 0001879  24.9610 335.1691 14.78487467 97217

Śledź KINEIS-5B w czasie rzeczywistym z AllMySat

Download on the App Store